Location: Sihaung
(22.8641°N, 94.0549°E)
Time: 17:58:50
(UTC+00:00)

ARGOS - Pass Details

Date: 03 March 2021
Orbit: 819 x 835 km, 98.4° (Epoch: 12 April)

Event Time Altitude Azimuth Distance (km) Brightness Sun altitude
Rises 12:37:44 0° 156° (SSE) 3,359 6.1 -12.2°
Reaches altitude 10° 12:40:07 10° 152° (SSE) 2,430 5.3 -12.8°
Maximum altitude 12:45:22 55° 75° (ENE) 989 3.2 -14.0°
Drops below altitude 10° 12:50:39 10° 359° (N) 2,444 5.6 -15.2°
Sets 12:53:03 0° 355° (N) 3,381 6.4 -15.8°
